カタログに戻る

CZ-4 DEB

運用中PO
NORAD 26134·DEBRIS·🇨🇳 China

打ち上げ Oct 14, 1999 から Taiyuan Satellite Launch Center

Loading…

次のパス (今後24時間)

TLE

最新Source: Space-Track

元期: Sep 14, 2026, 21:03 UTC

1 26134U 99057W   26257.87746248  .00000543  00000-0  38275-3 0  9994
2 26134  98.9858  49.7836 0417779  94.7986  64.8712 13.66432732313338

AllMySatでCZ-4 DEBをリアルタイム追跡

Download on the App Store